Regional Weather Roundup
Issued by NWS Burlington, VT

Current Version | Previous Version | Text Only | Print | Product List | Glossary Off
Versions: 1 2 3 4 5 6 7 8 9 10 11 12 13 14 15 16 17 18 19 20 21 22 23 24 25 26 27 28 29 30 31 32 33 34 35 36 37 38 39 40 41 42 43 44 45 46 47 48 49 50

000
ASUS41 KBTV 150810
RWRBTV
VERMONT REGIONAL WEATHER ROUNDUP
NATIONAL WEATHER SERVICE BURLINGTON VT
300 AM EST FRI DEC 15 2017

NOTE: "FAIR" INDICATES FEW OR NO CLOUDS BELOW 12,000 FEET WITH NO
SIGNIFICANT WEATHER AND/OR OBSTRUCTIONS TO VISIBILITY.

* THESE REPORTS ARE NOT UNDER NWS QUALITY CONTROL AND/OR DO NOT
  REPORT WEATHER SUCH AS PRECIPITATION AND FOG.

VTZ001>019-150900-
_____VERMONT_____


CITY           SKY/WX    TMP DP  RH WIND       PRES   REMARKS
BURLINGTON     CLEAR      2  -4  76 E3        30.02R
MONTPELIER     CLEAR     -3  -6  87 CALM      29.96R
MORRISVILLE    CLEAR    -10 -14  82 SW3       29.98R
ST. JOHNSBURY*   N/A     -8 -11  86 MISG      29.97R
LYNDONVILLE*   FAIR      -3  -6  84 SE3       29.93R
MIDDLEBURY*    FAIR      10   2  70 CALM      30.00S
RUTLAND*       CLEAR      3   0  87 CALM      30.00R
SPRINGFIELD    CLEAR      6   1  80 CALM      30.00R
HIGHGATE*      FAIR       8   0  71 W5        30.02R WCI  -1
NEWPORT*       FAIR       2  -4  77 CALM      29.93S
BENNINGTON     PTCLDY     8   4  83 CALM      30.01S
SUTTON*          N/A     -4 N/A N/A MISG        N/A

_____LAKE CHAMPLAIN_____


CITY           SKY/WX    TMP DP  RH WIND       PRES   REMARKS
BURTON ISLAND*   N/A     16   9  73 W12G20      N/A  WCI   3
COLCHESTER RF*   N/A     16  12  86 SE10        N/A  WCI   3

$$

NYZ007-026>031-035-052-083-087-150900-
_____NORTHERN NEW YORK_____


CITY           SKY/WX    TMP DP  RH WIND       PRES   REMARKS
PLATTSBURGH    CLEAR      7  -1  70 CALM      30.02R
SARANAC LAKE   CLEAR      1  -1  91 SW6       29.88R WCI -10
MASSENA        CLEAR     -5  -7  91 S3        30.04F
OGDENSBURG*    FAIR     -10 -14  84 CALM      30.02S
POTSDAM*       MOCLDY     0  -4  85 CALM      30.01S
WATERTOWN      CLEAR      4   2  91 SE5       30.02S WCI  -5
FT DRUM        PTCLDY     7   2  79 S7        29.98F WCI  -5
ALBANY         CLEAR     11   5  77 CALM      30.07S
GLENS FALLS    CLEAR     -5  -7  91 NW5       30.05R WCI -16

$$
NHZ002-005-011-150900-
_____NEW HAMPSHIRE_____


CITY           SKY/WX    TMP DP  RH WIND       PRES   REMARKS
LEBANON        CLEAR     -4  -9  79 NE3       29.99R
KEENE          CLEAR     -1  -5  82 CALM      30.03R
MT WASHINGTON  BLWGSNOW -13 -13 100 NW77G87     N/A  VSB 1/8 WCI -55
PLYMOUTH       FAIR       1  -4  80 CALM      29.98R
WHITEFIELD     CLOUDY   -13 -18  78 CALM      29.93R

$$

_____REGIONAL QUEBEC LOCATIONS_____


CITY           SKY/WX    TMP DP  RH WIND       PRES   REMARKS
MONTREAL       PTCLDY     1  -8  66 W13       30.01R WCI -16
QUEBEC CITY    PTCLDY    -2 -11  65 W15       29.88R WCI -22
SHERBROOKE     CLEAR      1  -4  78 W7        29.91R WCI -11

_____REGIONAL ONTARIO LOCATIONS_____


CITY           SKY/WX    TMP DP  RH WIND       PRES   REMARKS
OTTAWA         CLEAR     -4  -9  77 SW5       30.01R WCI -15

______KEY______
VSB  - VISIBILITY IN MILES
WCI  - WIND CHILL INDEX
HX   - HEAT INDEX
$$
NNNN



USA.gov is the U.S. government's official web portal to all federal, state and local government web resources and services.